Location: アルンシュタイン
(50.0000°N, 10.0000°E)
Time: 14:19:07
(UTC+02:00)

ISS - Visible Passes

Search period start: 17 July 2024 00:00
Search period end: 27 July 2024 00:00
Orbit: 410 x 424 km, 51.6° (Epoch: 17 July)

Date Brightness Start Highest point End Pass type
(mag) Time Alt. Az. Time Alt. Az. Time Alt. Az.
17 Jul -3.9 00:39:43 10° WNW 00:43:02 65° SSW 00:43:06 65° SSW visible
17 Jul -3.3 22:14:32 10° W 22:17:50 63° N 22:21:08 10° E visible
17 Jul -3.9 23:51:23 10° WNW 23:54:42 86° SSW 23:56:05 33° ESE visible
18 Jul -1.3 01:28:27 10° W 01:28:58 13° W 01:28:58 13° W visible
18 Jul -3.7 23:03:00 10° WNW 23:06:20 78° NNE 23:09:07 14° E visible
19 Jul -2.5 00:39:52 10° W 00:41:59 28° WSW 00:41:59 28° WSW visible
19 Jul -3.5 22:14:35 10° WNW 22:17:53 68° N 22:21:11 10° E visible
19 Jul -3.5 23:51:23 10° WNW 23:54:36 48° SSW 23:55:01 45° S visible
20 Jul -3.8 23:02:54 10° WNW 23:06:12 68° SSW 23:08:04 23° SE visible
21 Jul -1.3 00:40:17 10° W 00:40:56 13° WSW 00:40:56 13° WSW visible
21 Jul -3.8 22:14:24 10° WNW 22:17:43 88° SSW 22:21:02 10° ESE visible
21 Jul -2.4 23:51:25 10° W 23:53:59 24° SW 23:53:59 24° SW visible
22 Jul -2.9 23:02:42 10° W 23:05:47 35° SSW 23:07:02 25° SSE visible
23 Jul -3.4 22:14:04 10° WNW 22:17:18 51° SSW 22:20:06 13° SE visible
23 Jul -1.3 23:52:13 10° WSW 23:52:58 11° SW 23:52:58 11° SW visible
24 Jul -1.9 23:02:44 10° W 23:05:02 18° SW 23:06:02 16° SSW visible
25 Jul -2.3 22:13:45 10° W 22:16:34 26° SW 22:19:07 11° SSE visible
